Regional Weather Roundup
Issued by NWS

Home | Current Version | Previous Version | Graphics & Text | Print | Product List | Glossary On
Versions: 1 2 3 4 5 6 7 8 9 10 11 12 13 14 15 16 17 18 19 20 21 22 23 24 25 26 27 28 29 30 31 32 33 34 35 36 37 38 39 40 41 42 43 44 45 46 47 48 49 50
000
ASUS43 KTOP 301808
RWRKS

WEATHER ROUNDUP FOR KANSAS
NATIONAL WEATHER SERVICE GOODLAND KS
100 PM CDT SAT JUL 30 2016

NOTE:  "FAIR" INDICATES FEW OR NO CLOUDS BELOW 12,000 FEET WITH NO
SIGNIFICANT WEATHER AND/OR OBSTRUCTIONS TO VISIBILITY.

KSZ001>006-013>018-027>032-041>047-301900-
NORTHWEST KANSAS

CITY           SKY/WX    TMP DP  RH WIND       PRES   REMARKS
GOODLAND       SUNNY     83  61  47 SE12G21   30.00F
6HR MIN TEMP:  61; 6HR MAX TEMP:  83;

HAYS           SUNNY     84  64  51 S14G20    29.99S
HILL CITY      SUNNY     85  66  53 S12       29.98F
6HR MIN TEMP:  67; 6HR MAX TEMP:  85;

RUSSELL        SUNNY     84  65  52 SE15      29.98F
6HR MIN TEMP:  69; 6HR MAX TEMP:  85; 6HR PCP:  0.05;

$$

KSZ061>065-074>080-084>089-301900-
SOUTHWEST KANSAS

CITY           SKY/WX    TMP DP  RH WIND       PRES   REMARKS
DODGE CITY     SUNNY     86  62  44 S12G20    30.00F
6HR MIN TEMP:  68; 6HR MAX TEMP:  86;

ELKHART          N/A     86  62  44 S18         N/A
GARDEN CITY    SUNNY     83  66  56 S10       30.00F
6HR MIN TEMP:  67; 6HR MAX TEMP:  83;

GREAT BEND     MOSUNNY   84  66  54 S18       29.98F
LIBERAL        SUNNY     88  63  42 S20G26    30.01F
PRATT          SUNNY     81  66  60 S13       30.01F
6HR MIN TEMP:  66; 6HR MAX TEMP:  81; 6HR PCP:  0.80;

$$

KSZ066>073-081>083-090>101-301900-
SOUTHEAST KANSAS

CITY           SKY/WX    TMP DP  RH WIND       PRES   REMARKS
CHANUTE        PTSUNNY   86  72  62 VRB5      30.02F
6HR MIN TEMP:  68; 6HR MAX TEMP:  86;

COFFEYVILLE    CLOUDY    83  71  67 S8        30.02F
6HR MIN TEMP:  69; 6HR MAX TEMP:  85;

HUTCHINSON     MOSUNNY   82  67  60 SE7       30.00F
6HR MIN TEMP:  70; 6HR MAX TEMP:  83; 6HR PCP: TRACE;

MEDICINE LODGE   N/A     84  68  58 S10       29.97F
NEWTON         MOSUNNY   81  67  62 S10       30.02F
PARSONS        PTSUNNY   85  71  63 SW7       30.03F
6HR MIN TEMP:  68; 6HR MAX TEMP:  87;

WICHITA INTL   CLOUDY    82  67  60 SE9       29.99F
6HR MIN TEMP:  73; 6HR MAX TEMP:  82; 6HR PCP:  0.04;

WICHITA JABRA  CLOUDY    79  68  69 SE6       30.01S
6HR MIN TEMP:  69; 6HR MAX TEMP:  79;

WICHITA MCCONL CLOUDY    80  66  61 SE10      30.00F
WINFIELD       CLOUDY    80  72  76 E12       29.99F
6HR MIN TEMP:  71; 6HR MAX TEMP:  80; 6HR PCP:  0.08;

$$

KSZ007>012-019>026-033>040-048>060-102>105-301900-
NORTHEAST KANSAS

CITY           SKY/WX    TMP DP  RH WIND       PRES   REMARKS
CONCORDIA      PTSUNNY   76  63  64 E13       30.01F
6HR MIN TEMP:  66; 6HR MAX TEMP:  83;

EMPORIA        MOSUNNY   84  70  62 E9        30.01F
6HR MIN TEMP:  67; 6HR MAX TEMP:  84;

LAWRENCE       MOSUNNY   83  67  58 NE5       30.02F
6HR MIN TEMP:  63; 6HR MAX TEMP:  83;

MANHATTAN      PTSUNNY   84  68  58 CALM      30.01S
6HR MIN TEMP:  67; 6HR MAX TEMP:  84;

MARYSVILLE     CLOUDY    64  63  94 SW8       30.06F
OLATHE IND     MOSUNNY   83  65  54 VRB3      30.04S
6HR MIN TEMP:  66; 6HR MAX TEMP:  83;

OLATHE EXE     PTSUNNY   83  65  54 S6        30.04S
6HR MIN TEMP:  66; 6HR MAX TEMP:  83;

SALINA         LGT RAIN  85  68  56 S9        29.98F
6HR MIN TEMP:  71; 6HR MAX TEMP:  89; 6HR PCP: TRACE;

TOPEKA BILLARD MOSUNNY   83  66  56 SE6       30.02F
6HR MIN TEMP:  64; 6HR MAX TEMP:  84;

TOPEKA FORBES  SUNNY     84  66  54 VRB5      30.02F
6HR MIN TEMP:  67; 6HR MAX TEMP:  85;

$$




USA.gov is the U.S. government's official web portal to all federal, state and local government web resources and services.